Regional Weather Roundup
Issued by NWS

Home | Current Version | Previous Version | Text Only | Print | Product List | Glossary On
Versions: 1 2 3 4 5 6 7 8 9 10 11 12 13 14 15 16 17 18 19 20 21 22 23 24 25 26 27 28 29 30 31 32 33 34 35 36 37 38 39 40 41 42 43 44 45 46 47 48 49 50
000
ASUS43 KLMK 260810
RWRKY
KENTUCKY REGIONAL WEATHER ROUNDUP
NATIONAL WEATHER SERVICE LOUISVILLE KY
300 AM EST SUN FEB 26 2017

NOTE "FAIR" INDICATES FEW OR NO CLOUDS BELOW 12,000 FEET
WITH NO SIGNIFICANT WEATHER AND/OR OBSTRUCTIONS TO VISIBILITY.

KYZ001>023-026-027-061>063-070>075-260900-
WESTERN AND SOUTH CENTRAL KENTUCKY

CITY           SKY/WX    TMP DP  RH WIND       PRES   REMARKS
PADUCAH        CLEAR     25  18  74 CALM      30.17R
HENDERSON      CLEAR     25  16  68 CALM      30.16S
OWENSBORO      CLEAR     28  20  71 CALM      30.17S
HOPKINSVILLE   CLEAR     29  20  71 CALM      30.16R
BOWLING GREEN  PTCLDY    28  20  71 CALM      30.18R
GLASGOW        CLEAR     24  21  87 CALM      30.15F
$$

KYZ024-025-028>034-038-045-046-053-260900-
NORTH CENTRAL KENTUCKY

CITY           SKY/WX    TMP DP  RH WIND       PRES   REMARKS
LOUISVILLE/SDF PTCLDY    27  15  61 W7        30.15R WCI  19
LOUISVILLE/LOU PTCLDY    31  16  54 W6        30.15R WCI  25
FORT KNOX      CLEAR     24  17  76 CALM      30.13R
$$

KYZ035>037-039>044-047>052-055>060-089>105-260900-
NORTHEAST KENTUCKY

CITY           SKY/WX    TMP DP  RH WIND       PRES   REMARKS
LEXINGTON      CLEAR     26  18  71 W5        30.12R WCI  20
COVINGTON      CLEAR     25  16  68 W7        30.10R WCI  17
FRANKFORT      CLEAR     26  16  65 SW5       30.12R WCI  20
$$

KYZ054-064>069-076>088-106>120-260900-
SOUTHEAST KENTUCKY

CITY           SKY/WX    TMP DP  RH WIND       PRES   REMARKS
JACKSON        CLEAR     28  18  66 W5        30.09S WCI  23
LONDON         CLEAR     26  21  81 CALM      30.12S
SOMERSET       CLEAR     25  25 100 CALM      30.15S
MIDDLESBORO    CLEAR     27  24  86 CALM      30.14R
MONTICELLO     SUNNY     18  15  88 N9        30.16S WCI   7
$$





USA.gov is the U.S. government's official web portal to all federal, state and local government web resources and services.